Weather History for Brno, Czech Republic

Change the Weather History Date:

Monday, October 28, 2013

  Actual Average Record
Temperature  
Mean Temperature 58 °F -  
Max Temperature 67 °F 45 °F - ()
Min Temperature 50 °F 34 °F - ()
Degree Days  
Heating Degree Days 6    
Growing Degree Days 8 (Base 50)    
Moisture  
Dew Point 53 °F    
Average Humidity 83    
Maximum Humidity 94    
Minimum Humidity 68    
Precipitation  
Precipitation 0.00 in 0.05 in - ()
Sea Level Pressure  
Sea Level Pressure 29.88 in    
Wind  
Wind Speed 6 mph ()    
Max Wind Speed 14 mph    
Max Gust Speed -    
Visibility 11.4 miles    
Events      
T = Trace of Precipitation, MM = Missing Value Source: Averaged Metar Reports

Daily Weather History Graph

Daily Weather History Graph

Search for Another Location

Airport:

Trip Planner

Search our weather history database for the weather conditions in past years. The results will help you decide how hot, cold, wet, or windy it might be!

Date:

Astronomy

Oct. 28, 2013 Rise Set
Actual Time 6:34 AM CET 4:38 PM CET
Civil Twilight 6:01 AM CET 5:11 PM CET
Nautical Twilight 5:24 AM CET 5:49 PM CET
Astronomical Twilight 4:47 AM CET 6:25 PM CET
Moon No Moon Rise 1:40 PM CET (10/28)
Length of Visible Light 11h 10m
Length of Day
10h 04m
Last Quarter, 36% of the Moon is Illuminated
Oct 28
Last Quarter
Nov 3
New
Nov 10
First Quarter
Nov 17
Full
Nov 25
Last Quarter

Hourly Weather History & Observations

Time (CET) Temp. Dew Point Humidity Pressure Visibility Wind Dir Wind Speed Gust Speed Precip Events Conditions
12:00 AM 55.4 °F 51.8 °F 88% 29.95 in - SSW 9.2 mph - N/A   Clear
12:30 AM 53.6 °F 51.8 °F 94% 29.95 in - SSW 11.5 mph - N/A   Clear
1:00 AM 53 °F 50 °F 87% 29.97 in 19 mi SW 8.9 mph - -   Partly Cloudy
1:00 AM 51.8 °F 50.0 °F 94% 29.95 in - SSW 8.1 mph - N/A   Clear
1:30 AM 51.8 °F 50.0 °F 94% 29.98 in - WSW 8.1 mph - N/A   Clear
2:00 AM 53.6 °F 50.0 °F 88% 29.98 in - SW 11.5 mph - N/A   Clear
2:30 AM 53.6 °F 50.0 °F 88% 29.98 in - WSW 9.2 mph - N/A   Clear
3:00 AM 51.8 °F 50.0 °F 94% 29.95 in - Variable 3.5 mph - N/A   Clear
3:30 AM 51.8 °F 48.2 °F 88% 29.95 in - South 3.5 mph - N/A   Clear
4:00 AM 50.0 °F 48.2 °F 94% 29.95 in - SSW 5.8 mph - N/A   Clear
4:30 AM 51.8 °F 48.2 °F 88% 29.95 in - SSW 2.3 mph - N/A   Clear
5:00 AM 51.8 °F 48.2 °F 88% 29.95 in - Variable 2.3 mph - N/A   Clear
5:30 AM 51.8 °F 48.2 °F 88% 29.95 in - Variable 2.3 mph - N/A   Clear
6:00 AM 53.6 °F 48.2 °F 82% 29.95 in - SW 2.3 mph - N/A   Clear
6:30 AM 50.0 °F 48.2 °F 94% 29.95 in - East 3.5 mph - N/A   Clear
7:00 AM 52 °F 48 °F 83% 29.95 in 19 mi ESE 2.2 mph - -   Mostly Cloudy
7:00 AM 51.8 °F 48.2 °F 88% 29.92 in - Variable 2.3 mph - N/A   Clear
7:30 AM 53.6 °F 50.0 °F 88% 29.95 in - Calm Calm - N/A   Clear
8:00 AM 53.6 °F 50.0 °F 88% 29.92 in - SSW 3.5 mph - N/A   Clear
8:30 AM 55.4 °F 51.8 °F 88% 29.92 in - Variable 2.3 mph - N/A   Clear
9:00 AM 55.4 °F 51.8 °F 88% 29.92 in - Variable 2.3 mph - N/A   Clear
9:30 AM 59.0 °F 53.6 °F 82% 29.92 in - SSW 8.1 mph - N/A   Clear
10:00 AM 60.8 °F 53.6 °F 77% 29.92 in - SW 5.8 mph - N/A   Clear
10:30 AM 62.6 °F 53.6 °F 72% 29.89 in - South 8.1 mph - N/A   Clear
11:00 AM 62.6 °F 55.4 °F 77% 29.89 in - South 3.5 mph - N/A   Clear
11:30 AM 66.2 °F 55.4 °F 68% 29.86 in - South 11.5 mph - N/A   Clear
12:00 PM 64.4 °F 55.4 °F 73% 29.86 in - South 13.8 mph - N/A   Clear
12:30 PM 64.4 °F 55.4 °F 73% 29.83 in - South 8.1 mph - N/A   Clear
1:00 PM 64 °F 56 °F 68% 29.82 in 22 mi South 8.9 mph - -   Partly Cloudy
1:00 PM 64.4 °F 57.2 °F 77% 29.83 in - South 6.9 mph - N/A   Clear
1:30 PM 64.4 °F 57.2 °F 77% 29.83 in - South 6.9 mph - N/A   Clear
2:00 PM 64.4 °F 57.2 °F 77% 29.80 in - South 6.9 mph - N/A   Clear
2:30 PM 66.2 °F 57.2 °F 73% 29.80 in - South 10.4 mph - N/A   Clear
3:00 PM 66.2 °F 59.0 °F 78% 29.80 in - South 10.4 mph - N/A   Clear
3:30 PM 66.2 °F 57.2 °F 73% 29.80 in - South 9.2 mph - N/A   Clear
4:00 PM 66.2 °F 57.2 °F 73% 29.80 in 6.2 mi South 11.5 mph - N/A   Partly Cloudy
4:30 PM 64.4 °F 57.2 °F 77% 29.80 in 6.2 mi South 8.1 mph - N/A   Partly Cloudy
5:00 PM 62.6 °F 55.4 °F 77% 29.80 in 6.2 mi ESE 5.8 mph - N/A   Partly Cloudy
5:30 PM 62.6 °F 55.4 °F 77% 29.80 in - SE 3.5 mph - N/A   Clear
6:00 PM 62.6 °F 55.4 °F 77% 29.80 in - Calm Calm - N/A   Clear
6:30 PM 60.8 °F 55.4 °F 82% 29.80 in - SSE 3.5 mph - N/A   Clear
7:00 PM 62 °F 56 °F 73% 29.81 in 12 mi SE 4.5 mph - -   Scattered Clouds
7:00 PM 62.6 °F 55.4 °F 77% 29.80 in - Variable 2.3 mph - N/A   Clear
7:30 PM 60.8 °F 55.4 °F 82% 29.80 in - Calm Calm - N/A   Clear
8:00 PM 57.2 °F 53.6 °F 88% 29.80 in - SSE 3.5 mph - N/A   Clear
8:30 PM 60.8 °F 55.4 °F 82% 29.80 in - East 4.6 mph - N/A   Clear
9:00 PM 59.0 °F 55.4 °F 88% 29.83 in - NE 3.5 mph - N/A   Clear
9:30 PM 59.0 °F 55.4 °F 88% 29.83 in - East 4.6 mph - N/A   Clear
10:00 PM 57.2 °F 53.6 °F 88% 29.83 in - ESE 4.6 mph - N/A   Clear
10:30 PM 59.0 °F 55.4 °F 88% 29.83 in - Variable 2.3 mph - N/A   Clear
11:00 PM 59.0 °F 55.4 °F 88% 29.83 in - Variable 2.3 mph - N/A   Clear
11:30 PM 57.2 °F 55.4 °F 94% 29.86 in - Variable 1.2 mph - N/A   Clear